Location: Fours
(44.3167°N, 6.7000°E)
Time: 22:27:55
(UTC+00:00)

Cosmos 1328 - Pass Details

Date: 16 October 2021
Orbit: 529 x 552 km, 82.5° (Epoch: 04 December)

Event Time Altitude Azimuth Distance (km) Brightness Sun altitude
Rises 18:17:33 0° 355° (N) 2,727 7.5 -16.9°
Reaches altitude 10° 18:19:45 10° 359° (N) 1,832 6.5 -17.3°
Maximum altitude 18:23:43 57° 79° (E) 652 3.8 -18.0°
Enters shadow 18:25:38 28° 147° (SSE) 1,052 4.9 -18.4°
